This demonstration page uses our WeatherBlox Daily Observations layout. Learn more.

Left ArrowRight Arrow

39.12711, -84.51439

Hourly Observations for December 4, 2021

Temp ( °F °C ) Dew Point ( °F °C ) Humidity (%) Winds ( mph kmh ) Pressure ( in mb ) Visibility ( mi km ) Precip ( " mm )
12:53 am 00:53 Clear 37 2.8 36 2.2 96 96 N N/A 30.04 1017 10 16 N/A
1:53 am 01:53 Clear 37 2.8 35 1.7 93 93 N 3 6 30.04 1017 10 16 N/A
2:53 am 02:53 Clear 35 1.7 33 0.6 93 93 NNE 5 7 30.07 1018 10 16 N/A
3:53 am 03:53 Clear 36 2.2 33 0.6 89 89 NE 5 7 30.09 1019 10 16 N/A
4:53 am 04:53 Clear 35 1.7 33 0.6 93 93 N 6 9 30.11 1020 10 16 N/A
5:53 am 05:53 Clear 35 1.7 33 0.6 93 93 NNE 6 9 30.14 1021 10 16 N/A
6:53 am 06:53 Clear 34 1.1 33 0.6 97 97 NNE 3 6 30.18 1022 10 16 N/A
7:53 am 07:53 Sunny 32 undefined 32 undefined 100 100 N N/A 30.22 1023 10 16 N/A
8:53 am 08:53 Sunny 36 2.2 35 1.7 97 97 N N/A 30.25 1024 10 16 N/A
9:53 am 09:53 Sunny 43 6.1 36 2.2 76 76 E 3 6 30.26 1025 10 16 N/A
10:53 am 10:53 Sunny 47 8.3 37 2.8 69 69 ENE 3 6 30.26 1025 10 16 N/A
11:53 am 11:53 Sunny 51 10.6 35 1.7 54 54 NNE 8 13 30.26 1025 10 16 N/A
12:53 pm 12:53 Sunny 52 11.1 32 undefined 47 47 VRB 3 6 30.24 1024 10 16 N/A
1:53 pm 13:53 Sunny 54 12.2 30 -1.1 40 40 NNE 8 13 30.23 1024 10 16 N/A
2:53 pm 14:53 Sunny 54 12.2 28 -2.2 37 37 N 8 13 30.23 1024 10 16 N/A
3:53 pm 15:53 Sunny 52 11.1 26 -3.3 37 37 NNE 9 15 30.24 1024 10 16 N/A
4:53 pm 16:53 Sunny 50 10 23 -5 35 35 N 5 7 30.27 1025 10 16 N/A
5:53 pm 17:53 Clear 43 6.1 28 -2.2 56 56 N N/A 30.28 1025 10 16 N/A
6:53 pm 18:53 Clear 37 2.8 30 -1.1 76 76 N N/A 30.29 1026 10 16 N/A
7:53 pm 19:53 Clear 34 1.1 30 -1.1 85 85 N N/A 30.30 1026 10 16 N/A
8:53 pm 20:53 Clear 33 0.6 28 -2.2 82 82 NE 5 7 30.30 1026 10 16 N/A
9:53 pm 21:53 Clear 31 -0.6 28 -2.2 89 89 N N/A 30.30 1026 10 16 N/A
10:53 pm 22:53 Clear 30 -1.1 28 -2.2 92 92 N N/A 30.31 1026 10 16 N/A
11:53 pm 23:53 Clear 31 -0.6 29 -1.7 92 92 NE 3 6 30.29 1026 10 16 N/A

Powered by AerisWeather